User: anonymous   Login
Location: Unspecified
(43.4680°N, 87.1740°E)
Time: 08:36:36
(UTC+00:00)
Language:

Cosmos 1470 - Orbit

View from above orbital plane
View from above orbital plane
View from above satellite
View from above satellite

Ground track
Ground track

The orbit data is extracted from the following two-line orbital elements,

1 14147U 83061A   21164.77465003 -.00000115  00000-0 -85824-5 0  9992
2 14147  82.4830  46.4641 0013874 289.9368  70.0367 15.11696365824669
Epoch (UTC): 13 June 2021 18:35:29
Eccentricity: 0.0013874
inclination: 82.4830°
perigee height: 521 km
apogee height: 540 km
right ascension of ascending node: 46.4641°
argument of perigee: 289.9368°
revolutions per day: 15.11696365
mean anomaly at epoch: 70.0367°
orbit number at epoch: 82466

The dashed part of the orbit path shows where the satellite is in the earth's shadow,  

DLR